This is the latest recevied weather packets stored in our database for station/object K6GMW. If no packets are shown the sender has not sent any weather packets the latest 10 day(s).
| Time | Temp. | Humidity | Pressure | Rain* | Wind** | Luminosity | Snow |
|---|---|---|---|---|---|---|---|
| 1778184422 | 21.11° C | 59% | 1017.5 hPa | 0 mm | - | 454 W/m² | - |
| 1778184119 | 21.67° C | 57% | 1017.7 hPa | 0 mm | - | 430 W/m² | - |
| 1778183815 | 21.67° C | 55% | 1017.8 hPa | 0 mm | - | 470 W/m² | - |
| 1778183512 | 22.22° C | 57% | 1018.1 hPa | 0 mm | - | 522 W/m² | - |
| 1778183209 | 21.11° C | 57% | 1018 hPa | 0 mm | - | 481 W/m² | - |
| 1778182905 | 21.11° C | 56% | 1018.4 hPa | 0 mm | - | 495 W/m² | - |
| 1778182602 | 21.67° C | 56% | 1018.4 hPa | 0 mm | - | 453 W/m² | - |
| 1778182299 | 21.11° C | 56% | 1018.4 hPa | 0 mm | - | 586 W/m² | - |
| 1778181995 | 21.11° C | 57% | 1018.5 hPa | 0 mm | - | 474 W/m² | - |
| 1778181692 | 21.11° C | 59% | 1018.2 hPa | 0 mm | - | 457 W/m² | - |
| 1778181387 | 21.11° C | 60% | 1018.2 hPa | 0 mm | - | 590 W/m² | - |
| 1778181084 | 21.67° C | 57% | 1017.9 hPa | 0 mm | - | 528 W/m² | - |
| 1778180782 | 21.67° C | 59% | 1018.2 hPa | 0 mm | - | 650 W/m² | - |
| 1778180481 | 21.11° C | 60% | 1018.3 hPa | 0 mm | - | 601 W/m² | - |
| 1778180179 | 21.11° C | 57% | 1018.5 hPa | 0 mm | - | 561 W/m² | - |
| 1778179875 | 21.11° C | 60% | 1018.4 hPa | 0 mm | - | 600 W/m² | - |
| 1778179573 | 20.56° C | 62% | 1018.6 hPa | 0 mm | - | 796 W/m² | - |
| 1778179270 | 21.11° C | 59% | 1018.4 hPa | 0 mm | - | 795 W/m² | - |
| 1778178967 | 20.56° C | 62% | 1018.4 hPa | 0 mm | - | 633 W/m² | - |
| 1778178663 | 20.56° C | 59% | 1018.3 hPa | 0 mm | - | 688 W/m² | - |
| 1778178360 | 20.56° C | 60% | 1018.3 hPa | 0 mm | - | 586 W/m² | - |
| 1778178055 | 20.56° C | 60% | 1018.5 hPa | 0 mm | - | 729 W/m² | - |
| 1778177753 | 21.11° C | 61% | 1018.4 hPa | 0 mm | - | 550 W/m² | - |
| 1778177449 | 20.56° C | 60% | 1018.5 hPa | 0 mm | - | 447 W/m² | - |
| 1778177146 | 20.56° C | 60% | 1018.5 hPa | 0 mm | - | 739 W/m² | - |
* Rain latest hour (hover to see other rain measurements)
** Current wind speed in m/s (hover to see current wind gust speed)